Regional Weather Roundup
Issued by NWS Midland/Odessa, TX

Skip options and go directly to product.
Home | Oldest Version | Previous Version | Current Version | All | Text Only | Save Text | Print | Product List | Glossary Off

Skip product version selection by date and time.   

166
ASUS44 KMAF 060601
RWRMAF
MIDLAND AREA WEATHER ROUNDUP
NATIONAL WEATHER SERVICE MIDLAND TX
1200 AM CST FRI MAR 06 2015

...IN SOUTHWEST TEXAS AND SOUTHEAST NEW MEXICO...

CITY           SKY/WX    TMP DP  RH WIND       PRES   REMARKS
ALPINE         CLEAR     28  26  93 SW6       30.47F WCI  21
ANDREWS        FAIR      31  27  84 SW8       30.47F WCI  23
ARTESIA        CLEAR     27  28 100 SE9       30.41F WCI  17
BIG SPRING     CLEAR     31  23  72 SE6       30.51F WCI  25
CARLSBAD       CLEAR     29  25  85 S10       30.41F WCI  20
DRYDEN           N/A     33  26  75 CALM      30.48F
FORT STOCKTON  CLEAR     29  27  92 S6        30.45F WCI  23
GUAD PASS      NOT AVBL
HOBBS          CLEAR     27  27 100 S5        30.43F WCI  21
MARFA          CLEAR     25  23  93 W3        30.42S
MIDLAND AIRPK  CLEAR     33  25  71 S5        30.49F WCI  29
MIDLAND INTL   CLEAR     31  25  78 SW5       30.47F WCI  26
ODESSA         CLEAR     30  25  81 SW5       30.47F WCI  25
PECOS          CLEAR     29  27  90 CALM      30.47F
PRESIDIO       FAIR      40  26  57 NE8G16    30.43F WCI  35
SEMINOLE       CLEAR     29  26  90 SW8       30.45F WCI  21
SNYDER         CLEAR     29  21  69 S8        30.50F WCI  22
WINK           CLEAR     30  24  78 CALM      30.46F
$$
...OTHER STATIONS IN TEXAS...

CITY           SKY/WX    TMP DP  RH WIND       PRES   REMARKS
ABILENE        CLEAR     28  21  75 S7        30.54F WCI  21
AMARILLO       CLEAR     27  23  85 S10       30.38S WCI  17
AUSTIN         PTCLDY    26  20  77 N10       30.59F WCI  16
BROWNSVILLE    CLOUDY    50  33  52 N15G22    30.51S
CORPUS CHRISTI CLOUDY    42  28  57 N15       30.56F WCI  34
DALLAS FTW     CLEAR     30  20  66 SW7       30.58F WCI  23
DEL RIO        CLEAR     38  28  67 E3        30.55F
EL PASO        CLEAR     38  21  50 CALM      30.38S
HOUSTON INT    PTCLDY    36  23  59 N7        30.57R WCI  30
LUBBOCK        CLEAR     31  24  75 S12       30.42S WCI  22
SAN ANGELO     CLEAR     28  22  78 S6        30.53F WCI  22
SAN ANTONIO    PTCLDY    35  22  58 N5        30.58F WCI  31
WACO           CLEAR     29  21  72 N7        30.61F WCI  22
WICHITA FALLS  NOT AVBL
$$
...OTHER LOCATIONS IN NEW MEXICO...

CITY           SKY/WX    TMP DP  RH WIND       PRES   REMARKS
ALAMAGORDO     CLEAR     32  25  74 N6        30.39F WCI  26
ALBUQUERQUE    CLEAR     39  11  31 CALM      30.38S
CANNON AFB     NOT AVBL
CLOVIS         CLEAR     25  19  80 SW8       30.37R WCI  16
HOLLOMAN AFB   NOT AVBL
ROSWELL        CLEAR     27  23  85 S8        30.39F WCI  19
RUIDOSO        CLEAR     32  14  47 NW10      30.37S WCI  24
SANTA FE       CLEAR     29  14  53 N10       30.36R WCI  20
TRUTH OR CONSE CLEAR     36  17  46 W3        30.37R
TUCUMCARI      CLEAR     29  22  75 SW8       30.33S WCI  21
$$

USA.gov is the U.S. government's official web portal to all federal, state and local government web resources and services.